THY7NU LTFM-LRCL

Flight info

Callsign THY7NU
Flight time 1h 8m
Altitude 34000
Route IBLAX1D/35L IBLAX P727 BGS L622 GONGO DCT KOMAN DCT DOKUD
Aircraft A321/M-SDE3FGHIRWY/LB1

Departure

Time 2026-05-01 08:44
Airport İstanbul Airport (LTFM)

Arrival

Time 2026-05-01 09:52
Airport Avram Iancu Cluj International Airport (LRCL)
Time Latitude Longitude Altitude Speed Heading
2026-05-01 08:23 41.25963 28.73585 323 ft 0 kts 107°
2026-05-01 08:34 41.25966 28.73574 323 ft 2 kts 107°
2026-05-01 08:35 41.25970 28.73555 323 ft 2 kts 108°
2026-05-01 08:35 41.25974 28.73536 323 ft 2 kts 107°
2026-05-01 08:35 41.25979 28.73517 322 ft 2 kts 108°
2026-05-01 08:35 41.25983 28.73498 323 ft 2 kts 107°
2026-05-01 08:36 41.25987 28.73479 323 ft 1 kts 108°
2026-05-01 08:36 41.25990 28.73467 323 ft 2 kts 95°
2026-05-01 08:36 41.25987 28.73448 323 ft 2 kts 57°
2026-05-01 08:36 41.25976 28.73434 324 ft 1 kts 25°
2026-05-01 08:37 41.25970 28.73431 324 ft 1 kts 13°
2026-05-01 08:37 41.25967 28.73430 323 ft 0 kts 17°
2026-05-01 08:39 41.25977 28.73434 324 ft 2 kts 17°
2026-05-01 08:40 41.26073 28.73475 323 ft 14 kts 17°
2026-05-01 08:40 41.26160 28.73506 323 ft 10 kts
2026-05-01 08:40 41.26216 28.73478 324 ft 6 kts 296°
2026-05-01 08:41 41.26220 28.73381 324 ft 16 kts 269°
2026-05-01 08:41 41.26219 28.73182 325 ft 26 kts 269°
2026-05-01 08:41 41.26217 28.72915 325 ft 28 kts 268°
2026-05-01 08:41 41.26213 28.72677 325 ft 20 kts 270°
2026-05-01 08:42 41.26214 28.72565 325 ft 6 kts 271°
2026-05-01 08:42 41.26214 28.72553 325 ft 0 kts 272°
2026-05-01 08:42 41.26214 28.72542 325 ft 3 kts 272°
2026-05-01 08:42 41.26234 28.72518 325 ft 5 kts
2026-05-01 08:43 41.26274 28.72519 325 ft 16 kts
2026-05-01 08:43 41.26647 28.72514 323 ft 87 kts 359°
2026-05-01 08:43 41.27463 28.72496 313 ft 145 kts 360°
2026-05-01 08:43 41.28582 28.72466 713 ft 163 kts
2026-05-01 08:44 41.29688 28.72440 1475 ft 161 kts
2026-05-01 08:44 41.30779 28.72396 1986 ft 160 kts
2026-05-01 08:44 41.31918 28.72422 2296 ft 169 kts
2026-05-01 08:44 41.33144 28.72484 2577 ft 183 kts
2026-05-01 08:45 41.34482 28.72413 2788 ft 206 kts 351°
2026-05-01 08:45 41.35844 28.71568 3072 ft 230 kts 334°
2026-05-01 08:45 41.37223 28.70370 3479 ft 244 kts 332°
2026-05-01 08:45 41.38675 28.69102 4033 ft 251 kts 332°
2026-05-01 08:46 41.40133 28.67862 4711 ft 253 kts 333°
2026-05-01 08:46 41.41644 28.66644 5419 ft 254 kts 336°
2026-05-01 08:46 41.43231 28.65574 6088 ft 257 kts 338°
2026-05-01 08:46 41.44830 28.64547 6760 ft 260 kts 338°
2026-05-01 08:47 41.46476 28.63483 7463 ft 264 kts 337°
2026-05-01 08:47 41.48115 28.62414 8139 ft 267 kts 336°
2026-05-01 08:47 41.49793 28.61309 8828 ft 270 kts 336°
2026-05-01 08:47 41.51479 28.60191 9493 ft 273 kts 335°
2026-05-01 08:48 41.53186 28.59055 10146 ft 276 kts 334°
2026-05-01 08:48 41.54918 28.57899 10583 ft 286 kts 334°
2026-05-01 08:48 41.56743 28.56679 10875 ft 302 kts 334°
2026-05-01 08:48 41.58644 28.55404 11244 ft 313 kts 334°
2026-05-01 08:49 41.60603 28.54091 11829 ft 317 kts 333°
2026-05-01 08:49 41.62569 28.52771 12437 ft 319 kts 333°
2026-05-01 08:49 41.64580 28.51420 13043 ft 322 kts 333°
2026-05-01 08:49 41.66555 28.50093 13623 ft 324 kts 332°
2026-05-01 08:50 41.68576 28.48733 14187 ft 326 kts 332°
2026-05-01 08:50 41.70625 28.47353 14745 ft 329 kts 332°
2026-05-01 08:50 41.72671 28.45975 15291 ft 331 kts 331°
2026-05-01 08:50 41.74714 28.44598 15828 ft 334 kts 331°
2026-05-01 08:51 41.76790 28.43197 16351 ft 336 kts 330°
2026-05-01 08:51 41.78876 28.41787 16850 ft 339 kts 330°
2026-05-01 08:51 41.80995 28.40356 17350 ft 342 kts 330°
2026-05-01 08:51 41.83127 28.38913 17836 ft 344 kts 330°
2026-05-01 08:52 41.85255 28.37472 18327 ft 346 kts 329°
2026-05-01 08:52 41.87415 28.36007 18802 ft 349 kts 329°
2026-05-01 08:52 41.89599 28.34524 19270 ft 352 kts 329°
2026-05-01 08:52 41.91792 28.33036 19730 ft 354 kts 328°
2026-05-01 08:53 41.93990 28.31543 20169 ft 357 kts 328°
2026-05-01 08:53 41.96194 28.29993 20599 ft 358 kts 324°
2026-05-01 08:53 41.98190 28.28002 21011 ft 357 kts 314°
2026-05-01 08:53 41.99846 28.25584 21431 ft 355 kts 303°
2026-05-01 08:54 42.01269 28.22874 21863 ft 356 kts 301°
2026-05-01 08:54 42.02666 28.20089 22270 ft 358 kts 300°
2026-05-01 08:54 42.04056 28.17302 22676 ft 360 kts 300°
2026-05-01 08:54 42.05454 28.14509 23082 ft 362 kts 300°
2026-05-01 08:55 42.06858 28.11711 23431 ft 365 kts 300°
2026-05-01 08:55 42.08281 28.08874 23786 ft 368 kts 300°
2026-05-01 08:55 42.09714 28.06019 24147 ft 370 kts 300°
2026-05-01 08:55 42.11163 28.03129 24509 ft 373 kts 300°
2026-05-01 08:56 42.12614 28.00234 24875 ft 375 kts 300°
2026-05-01 08:56 42.13703 27.98062 25150 ft 376 kts 300°
2026-05-01 08:56 42.15171 27.95127 25501 ft 378 kts 301°
2026-05-01 08:56 42.16634 27.92204 25809 ft 381 kts 300°
2026-05-01 08:57 42.18115 27.89238 26115 ft 383 kts 301°
2026-05-01 08:57 42.19614 27.86233 26444 ft 385 kts 301°
2026-05-01 08:57 42.21159 27.83298 26746 ft 388 kts 306°
2026-05-01 08:57 42.23029 27.80683 27033 ft 395 kts 315°
2026-05-01 08:58 42.25260 27.78441 27332 ft 401 kts 324°
2026-05-01 08:58 42.27687 27.76573 27629 ft 404 kts 327°
2026-05-01 08:58 42.30159 27.74772 27919 ft 406 kts 328°
2026-05-01 08:58 42.32630 27.72986 28213 ft 407 kts 328°
2026-05-01 08:59 42.35114 27.71184 28522 ft 408 kts 328°
2026-05-01 08:59 42.37622 27.69356 28784 ft 409 kts 328°
2026-05-01 08:59 42.40145 27.67509 29037 ft 411 kts 328°
2026-05-01 08:59 42.42632 27.65686 29291 ft 412 kts 328°
2026-05-01 09:00 42.45162 27.63826 29560 ft 414 kts 328°
2026-05-01 09:00 42.47688 27.61967 29828 ft 415 kts 328°
2026-05-01 09:00 42.50234 27.60092 30066 ft 416 kts 328°
2026-05-01 09:00 42.52680 27.58290 30283 ft 417 kts 328°
2026-05-01 09:01 42.55260 27.56387 30514 ft 419 kts 328°
2026-05-01 09:01 42.57766 27.54461 30739 ft 419 kts 326°
2026-05-01 09:01 42.60219 27.52337 30992 ft 417 kts 323°
2026-05-01 09:01 42.62588 27.50074 31231 ft 415 kts 321°
2026-05-01 09:02 42.64934 27.47777 31436 ft 415 kts 321°
2026-05-01 09:02 42.67270 27.45478 31610 ft 415 kts 321°
2026-05-01 09:02 42.69591 27.43189 31781 ft 416 kts 321°
2026-05-01 09:02 42.71927 27.40885 31957 ft 416 kts 321°
2026-05-01 09:03 42.74254 27.38592 32139 ft 416 kts 321°
2026-05-01 09:03 42.76621 27.36258 32313 ft 415 kts 321°
2026-05-01 09:03 42.78949 27.33961 32477 ft 416 kts 321°
2026-05-01 09:03 42.81270 27.31666 32631 ft 417 kts 321°
2026-05-01 09:04 42.83634 27.29327 32770 ft 418 kts 321°
2026-05-01 09:04 42.85977 27.27008 32916 ft 419 kts 321°
2026-05-01 09:04 42.88329 27.24677 33054 ft 420 kts 321°
2026-05-01 09:04 42.90707 27.22320 33189 ft 420 kts 321°
2026-05-01 09:05 42.93071 27.19974 33322 ft 421 kts 321°
2026-05-01 09:05 42.95414 27.17645 33457 ft 422 kts 321°
2026-05-01 09:05 42.97803 27.15268 33584 ft 423 kts 321°
2026-05-01 09:05 43.00185 27.12895 33714 ft 424 kts 321°
2026-05-01 09:06 43.02573 27.10514 33842 ft 425 kts 321°
2026-05-01 09:06 43.04932 27.08159 33968 ft 426 kts 321°
2026-05-01 09:06 43.07335 27.05758 34115 ft 427 kts 321°
2026-05-01 09:06 43.09746 27.03373 34241 ft 428 kts 322°
2026-05-01 09:07 43.14245 26.99249 34261 ft 429 kts 324°
2026-05-01 09:07 43.19225 26.94747 34268 ft 429 kts 324°
2026-05-01 09:08 43.24180 26.90253 34273 ft 429 kts 324°
2026-05-01 09:08 43.29155 26.85724 34279 ft 428 kts 324°
2026-05-01 09:09 43.34094 26.81215 34277 ft 428 kts 324°
2026-05-01 09:09 43.39030 26.76699 34275 ft 428 kts 324°
2026-05-01 09:10 43.43981 26.72160 34270 ft 428 kts 324°
2026-05-01 09:10 43.48931 26.67613 34264 ft 429 kts 324°
2026-05-01 09:11 43.53897 26.63042 34273 ft 429 kts 324°
2026-05-01 09:11 43.58811 26.58509 34284 ft 428 kts 325°
2026-05-01 09:12 43.63747 26.53947 34283 ft 428 kts 325°
2026-05-01 09:12 43.68682 26.49376 34293 ft 427 kts 325°
2026-05-01 09:13 43.73608 26.44805 34296 ft 427 kts 325°
2026-05-01 09:13 43.78542 26.40216 34304 ft 428 kts 325°
2026-05-01 09:14 43.83457 26.35634 34311 ft 428 kts 325°
2026-05-01 09:14 43.88385 26.31029 34307 ft 429 kts 324°
2026-05-01 09:15 43.93341 26.26388 34321 ft 429 kts 324°
2026-05-01 09:15 43.98288 26.21875 34310 ft 429 kts 328°
2026-05-01 09:16 44.03510 26.17869 34311 ft 429 kts 331°
2026-05-01 09:17 44.11411 26.12040 34312 ft 429 kts 331°
2026-05-01 09:17 44.19308 26.06184 34307 ft 429 kts 331°
2026-05-01 09:18 44.27164 26.00333 34315 ft 429 kts 331°
2026-05-01 09:19 44.35071 25.94424 34298 ft 429 kts 331°
2026-05-01 09:20 44.42915 25.88545 34312 ft 429 kts 331°
2026-05-01 09:21 44.53420 25.80639 34305 ft 429 kts 331°
2026-05-01 09:21 44.61275 25.74710 34301 ft 428 kts 332°
2026-05-01 09:22 44.71737 25.66783 34298 ft 428 kts 332°
2026-05-01 09:23 44.79612 25.60792 34290 ft 429 kts 332°
2026-05-01 09:24 44.87489 25.54782 34285 ft 429 kts 332°
2026-05-01 09:25 44.97944 25.46776 34271 ft 429 kts 332°
2026-05-01 09:26 45.05770 25.40763 34260 ft 428 kts 332°
2026-05-01 09:26 45.13627 25.34706 34244 ft 428 kts 331°
2026-05-01 09:27 45.18837 25.30676 33837 ft 426 kts 331°
2026-05-01 09:27 45.21407 25.28685 33665 ft 423 kts 332°
2026-05-01 09:27 45.23994 25.26679 33491 ft 421 kts 332°
2026-05-01 09:28 45.26554 25.24694 33315 ft 418 kts 332°
2026-05-01 09:28 45.29081 25.22732 33140 ft 416 kts 332°
2026-05-01 09:28 45.31598 25.20774 32965 ft 414 kts 332°
2026-05-01 09:28 45.34142 25.18795 32785 ft 414 kts 332°
2026-05-01 09:29 45.39177 25.14873 32237 ft 414 kts 332°
2026-05-01 09:29 45.41690 25.12911 31753 ft 416 kts 332°
2026-05-01 09:30 45.46772 25.08940 30355 ft 423 kts 332°
2026-05-01 09:30 45.49336 25.06932 29750 ft 420 kts 332°
2026-05-01 09:30 45.54406 25.02955 28763 ft 410 kts 332°
2026-05-01 09:31 45.56857 25.01027 28310 ft 405 kts 332°
2026-05-01 09:31 45.59316 24.99092 27864 ft 399 kts 332°
2026-05-01 09:31 45.64111 24.95315 26984 ft 389 kts 332°
2026-05-01 09:32 45.66439 24.93478 26560 ft 384 kts 332°
2026-05-01 09:32 45.71045 24.89838 25706 ft 375 kts 333°
2026-05-01 09:32 45.73316 24.88041 25275 ft 370 kts 333°
2026-05-01 09:33 45.75555 24.86268 24857 ft 365 kts 333°
2026-05-01 09:33 45.77764 24.84516 24435 ft 361 kts 333°
2026-05-01 09:33 45.82078 24.81091 23579 ft 354 kts 333°
2026-05-01 09:34 45.84220 24.79388 23144 ft 351 kts 334°
2026-05-01 09:34 45.86360 24.77688 22706 ft 348 kts 334°
2026-05-01 09:34 45.90554 24.74350 21836 ft 343 kts 334°
2026-05-01 09:35 45.92628 24.72696 21409 ft 341 kts 334°
2026-05-01 09:35 45.96709 24.69437 20569 ft 337 kts 334°
2026-05-01 09:35 45.98765 24.67793 20148 ft 335 kts 334°
2026-05-01 09:36 46.00778 24.66182 19727 ft 333 kts 334°
2026-05-01 09:36 46.02784 24.64576 19315 ft 331 kts 334°
2026-05-01 09:36 46.04805 24.62958 18898 ft 329 kts 334°
2026-05-01 09:36 46.06776 24.61378 18492 ft 327 kts 335°
2026-05-01 09:37 46.08760 24.59786 18066 ft 326 kts 335°
2026-05-01 09:37 46.12708 24.56613 17216 ft 324 kts 335°
2026-05-01 09:37 46.14670 24.55034 16791 ft 323 kts 335°
2026-05-01 09:38 46.18610 24.51864 15946 ft 327 kts 335°
2026-05-01 09:38 46.20596 24.50262 15517 ft 326 kts 335°
2026-05-01 09:38 46.22575 24.48664 15091 ft 325 kts 335°
2026-05-01 09:39 46.26483 24.45503 14251 ft 322 kts 335°
2026-05-01 09:39 46.28422 24.43933 13830 ft 321 kts 335°
2026-05-01 09:39 46.30384 24.42344 13392 ft 320 kts 335°
2026-05-01 09:40 46.32298 24.40792 13005 ft 318 kts 335°
2026-05-01 09:40 46.36146 24.37666 12282 ft 315 kts 334°
2026-05-01 09:40 46.38023 24.36140 11932 ft 314 kts 334°
2026-05-01 09:41 46.39932 24.34588 11410 ft 316 kts 333°
2026-05-01 09:41 46.43745 24.31484 10485 ft 317 kts 333°
2026-05-01 09:41 46.45647 24.29905 10176 ft 311 kts 332°
2026-05-01 09:42 46.47410 24.28364 10172 ft 286 kts 332°
2026-05-01 09:42 46.49069 24.26895 10192 ft 277 kts 332°
2026-05-01 09:42 46.52356 24.24001 9855 ft 275 kts 332°
2026-05-01 09:43 46.55617 24.21134 9215 ft 272 kts 332°
2026-05-01 09:43 46.57219 24.19726 8899 ft 271 kts 331°
2026-05-01 09:43 46.58840 24.18300 8585 ft 271 kts 331°
2026-05-01 09:44 46.62039 24.15481 7875 ft 267 kts 330°
2026-05-01 09:44 46.63603 24.14102 7393 ft 266 kts 330°
2026-05-01 09:44 46.65176 24.12715 6977 ft 264 kts 330°
2026-05-01 09:45 46.66758 24.11319 6607 ft 265 kts 330°
2026-05-01 09:45 46.69890 24.08546 5914 ft 263 kts 330°
2026-05-01 09:45 46.71434 24.07178 5591 ft 261 kts 330°
2026-05-01 09:46 46.72995 24.05794 5213 ft 262 kts 330°
2026-05-01 09:46 46.74566 24.04401 4711 ft 264 kts 330°
2026-05-01 09:46 46.76099 24.03040 4394 ft 252 kts 330°
2026-05-01 09:46 46.77540 24.01758 4304 ft 235 kts 330°
2026-05-01 09:47 46.78897 24.00552 4278 ft 221 kts 329°
2026-05-01 09:47 46.80187 23.99403 4258 ft 214 kts 329°
2026-05-01 09:47 46.81461 23.98271 4247 ft 214 kts 329°
2026-05-01 09:47 46.82710 23.97148 4198 ft 214 kts 327°
2026-05-01 09:48 46.83858 23.95759 4143 ft 210 kts 316°
2026-05-01 09:48 46.84555 23.93972 4114 ft 198 kts 282°
2026-05-01 09:48 46.84383 23.92045 4134 ft 193 kts 251°
2026-05-01 09:48 46.83841 23.90268 3955 ft 193 kts 246°
2026-05-01 09:49 46.83306 23.88473 3691 ft 191 kts 250°
2026-05-01 09:49 46.82861 23.86680 3439 ft 190 kts 253°
2026-05-01 09:49 46.82449 23.84855 3184 ft 189 kts 253°
2026-05-01 09:49 46.82049 23.83059 2924 ft 182 kts 253°
2026-05-01 09:50 46.81670 23.81380 2705 ft 170 kts 253°
2026-05-01 09:50 46.81300 23.79751 2469 ft 167 kts 253°
2026-05-01 09:50 46.80941 23.78167 2252 ft 162 kts 253°
2026-05-01 09:50 46.80600 23.76662 2017 ft 150 kts 253°
2026-05-01 09:51 46.80280 23.75243 1825 ft 147 kts 253°
2026-05-01 09:51 46.79961 23.73830 1640 ft 147 kts 254°
2026-05-01 09:51 46.79639 23.72400 1445 ft 147 kts 254°
2026-05-01 09:51 46.79319 23.70999 1249 ft 147 kts 253°
2026-05-01 09:52 46.79001 23.69584 1031 ft 145 kts 253°
2026-05-01 09:52 46.78721 23.68321 1025 ft 108 kts 251°
2026-05-01 09:52 46.78548 23.67550 1031 ft 47 kts 252°
2026-05-01 09:52 46.78483 23.67262 1033 ft 15 kts 252°
2026-05-01 09:53 46.78453 23.67184 1034 ft 8 kts 217°
2026-05-01 09:53 46.78399 23.67193 1034 ft 9 kts 151°
2026-05-01 09:53 46.78348 23.67267 1033 ft 12 kts 115°
2026-05-01 09:53 46.78346 23.67401 1032 ft 14 kts 79°
2026-05-01 09:54 46.78370 23.67566 1032 ft 19 kts 81°
2026-05-01 09:54 46.78400 23.67788 1029 ft 25 kts 79°
2026-05-01 09:54 46.78437 23.68062 1027 ft 28 kts 79°
2026-05-01 09:54 46.78474 23.68332 1025 ft 26 kts 78°
2026-05-01 09:55 46.78513 23.68619 1022 ft 30 kts 79°
2026-05-01 09:55 46.78552 23.68909 1022 ft 28 kts 79°
2026-05-01 09:55 46.78576 23.69087 1022 ft 8 kts 80°
2026-05-01 09:55 46.78583 23.69149 1022 ft 9 kts 76°
2026-05-01 09:56 46.78600 23.69271 1022 ft 9 kts 84°
2026-05-01 09:56 46.78570 23.69331 1021 ft 6 kts 164°
2026-05-01 09:56 46.78551 23.69330 1021 ft 2 kts 238°
2026-05-01 09:56 46.78545 23.69304 1022 ft 2 kts 255°
2026-05-01 09:57 46.78540 23.69273 1022 ft 3 kts 256°
2026-05-01 09:57 46.78538 23.69265 1022 ft 0 kts 256°